Tracking 19832 objects as of 25-Aug-2019
HD Live streaming from Space Station
objects crossing your sky now

THORAD DELTA 1 DEB

Track THORAD DELTA 1 DEB now!
10-day predictions


NORAD ID: 8184
Int'l Code: 1974-089BA
Perigee: 1,432.3 km
Apogee: 1,532.0 km
Inclination: 101.5 °
Period: 115.4 minutes
Semi major axis: 7853 km
RCS: 0.8469 m2 (medium)
Launch date: November 15, 1974
Source: United States (US)
Launch site: AIR FORCE WESTERN TEST RANGE (AFWTR)

Note: This is SATELLITE DEBRIS
aabbcc
Your satellite tracking list
Your tracking list is empty




NASA's NSSDC Master Catalog

Two Line Element Set (TLE):
1  8184U 74089BA  19236.83442003 -.00000032 +00000-0 +76274-4 0  9990
2  8184 101.4784 277.6059 0063476 242.9042 169.7280 12.47494322038612
Source of the keplerian elements: AFSPC